Theta_e
302 304 304 304 303 303 303 304 304 304 304 305 305 305 307 307 308 309 309 310 309 311 312 313 312 312 312 313 313 311 311 313 315 324 332 336 341 343 344 344 343 344 343 342 343 343 343 343 343 343 343 342 342 341 341 340 340 340 340 340 340 340 340 339 338 337 333 332 333 334 336 339 340 339 339 338 337 337 335 333 333 332 332 333 334 334
303 304 304 303 302 303 303 304 304 304 304 304 305 305 305 305 306 306 307 308 307 309 311 311 311 311 312 314 313 312 313 313 314 323 330 334 338 341 342 343 343 343 343 343 344 344 344 344 343 343 343 342 341 341 341 340 340 340 340 340 340 340 340 339 338 337 335 331 331 333 335 338 339 339 339 338 336 336 336 335 333 332 333 334 335 335
303 304 303 302 302 303 303 303 303 303 303 304 304 304 305 305 305 306 306 307 307 308 309 310 309 310 312 315 315 313 313 312 312 318 326 334 339 341 342 342 343 342 343 344 344 345 345 344 344 343 343 343 341 341 340 341 340 340 341 341 340 340 340 339 339 337 335 333 332 333 335 337 338 339 339 337 336 335 336 335 334 333 334 335 335 335
304 304 303 302 302 302 303 303 302 303 303 304 304 304 304 304 305 306 307 307 307 307 309 309 309 309 312 314 315 312 310 312 313 313 318 329 339 342 342 342 343 342 342 344 345 345 346 345 345 344 343 343 341 341 341 341 341 341 341 341 340 340 340 339 339 338 336 335 335 335 336 336 337 338 338 336 336 336 336 335 334 334 335 336 335 334
304 304 302 302 302 303 303 303 303 303 303 303 303 303 303 304 305 305 306 306 307 307 307 308 307 311 315 312 313 314 311 312 313 312 315 323 335 341 342 342 342 341 341 343 345 345 346 346 345 345 344 343 342 341 340 340 341 341 341 341 340 340 339 339 339 338 336 336 336 337 338 337 337 338 337 337 337 337 336 335 335 334 335 336 335 334
303 303 302 303 303 303 302 302 303 303 303 303 303 304 303 304 305 305 305 305 306 307 307 308 308 314 322 315 312 315 314 314 313 313 314 318 329 339 343 344 343 342 341 341 343 344 345 346 345 345 344 342 342 341 341 340 340 342 342 341 341 340 339 339 339 337 336 337 336 337 337 336 336 337 338 338 338 337 336 335 335 335 335 336 335 334
304 303 303 303 303 303 302 302 302 303 303 303 304 305 304 304 304 305 305 305 307 307 307 309 308 313 322 319 316 316 314 316 315 314 314 313 322 336 342 344 344 343 343 342 342 343 343 345 345 345 344 343 342 341 341 341 341 342 342 341 340 340 339 339 338 337 337 337 337 337 336 334 335 337 338 338 337 336 335 335 335 335 335 335 335 334
305 305 305 305 304 304 304 303 303 303 303 304 305 305 304 305 304 305 305 304 307 307 307 309 309 310 314 317 318 315 313 317 317 316 315 311 317 330 338 342 344 344 343 343 344 344 344 345 345 344 343 342 341 341 342 341 342 343 342 341 340 339 339 338 338 337 336 336 337 337 335 333 334 336 337 338 338 336 335 335 335 335 335 335 334 333
306 306 306 306 305 305 304 304 304 303 303 304 305 304 304 304 305 305 305 305 306 307 306 307 308 309 310 313 316 313 312 315 316 317 316 312 313 323 334 338 341 343 344 343 343 344 345 344 345 343 338 338 341 342 343 343 343 343 342 342 340 339 339 338 338 337 336 336 336 335 335 335 335 336 336 337 337 337 336 336 336 335 335 334 334 333
305 305 305 305 305 304 304 305 304 303 304 305 304 304 304 304 305 305 305 305 306 307 307 307 307 308 310 313 314 313 313 314 315 316 315 313 311 316 327 335 339 342 344 344 343 344 345 345 344 342 338 338 342 343 343 343 343 343 342 342 341 340 339 338 338 337 337 336 335 335 335 336 337 337 337 337 337 337 336 337 336 335 334 334 333 333
304 304 304 305 305 305 305 304 304 304 304 304 304 303 304 304 304 305 307 306 306 308 308 307 307 308 309 312 313 314 318 317 315 315 314 313 312 312 319 328 335 340 342 344 344 343 344 345 344 344 343 342 344 344 343 343 343 343 343 342 341 340 339 337 337 336 336 335 334 335 337 337 337 337 338 338 337 336 336 337 336 335 334 333 333 333
304 304 304 305 305 305 305 305 304 305 304 304 304 303 304 307 306 304 306 307 305 307 309 308 308 307 307 311 312 313 317 316 314 316 316 314 313 312 314 319 328 336 340 344 345 344 344 345 345 345 344 344 344 344 343 343 343 343 342 342 341 340 339 336 334 334 334 334 334 336 337 338 338 337 337 337 336 336 335 336 335 335 334 334 333 333
305 304 304 304 305 305 305 305 305 305 304 303 304 304 303 306 306 304 306 308 307 308 311 309 308 308 308 310 311 311 312 313 312 313 314 313 313 312 313 315 319 327 336 341 344 345 344 345 345 345 344 345 344 343 343 343 343 343 342 342 341 340 338 336 334 333 332 332 334 335 337 338 338 337 337 337 336 335 335 335 335 334 334 333 333 332
307 307 306 304 305 305 305 305 304 306 306 304 304 305 304 305 305 305 308 309 307 309 311 310 308 309 310 310 311 311 310 310 310 310 312 312 312 312 313 314 314 319 328 338 343 345 345 345 345 345 344 344 344 343 343 342 343 343 343 342 341 340 338 336 335 334 331 330 332 335 337 337 338 338 337 337 335 334 334 335 334 334 333 333 332 332
307 308 308 306 305 305 304 304 304 306 306 304 304 305 306 307 307 309 311 309 309 311 311 309 310 311 312 314 316 313 311 310 309 310 311 311 312 313 313 314 314 316 322 333 341 344 345 345 344 344 344 344 344 343 342 342 343 343 343 342 341 339 338 338 337 337 334 330 331 334 336 337 337 337 337 336 334 334 334 334 334 333 333 333 332 332
306 307 308 305 305 304 304 304 304 304 304 304 304 304 305 307 308 310 313 313 313 315 314 312 316 318 316 317 319 314 313 312 310 312 312 312 314 314 314 314 314 316 320 329 339 343 344 345 344 344 344 343 343 343 342 342 343 343 343 342 341 340 339 338 339 339 337 333 331 332 335 336 337 337 336 335 334 334 334 334 334 333 333 333 333 333
306 307 307 305 305 305 304 304 304 304 306 305 304 304 305 306 306 307 311 314 313 312 314 314 314 317 315 316 317 314 314 315 315 315 313 312 314 314 314 314 314 316 321 329 337 341 343 344 344 344 343 343 343 342 342 342 343 343 342 342 341 340 339 339 339 339 338 336 333 332 334 335 336 336 336 335 335 334 335 335 335 334 334 334 333 333
306 307 307 305 306 305 303 303 304 304 305 305 304 306 307 307 307 308 311 314 311 309 315 317 315 315 315 317 320 316 315 317 318 318 316 313 313 313 313 314 315 316 323 332 337 339 341 343 344 344 343 343 342 342 342 342 342 343 342 341 340 339 338 338 338 339 338 337 335 332 333 335 336 336 336 335 335 335 335 336 335 334 334 333 333 333
306 306 308 306 304 306 305 304 305 305 303 305 305 305 309 309 308 309 309 311 311 311 316 320 318 317 315 316 319 318 317 318 317 318 318 317 314 312 313 315 315 317 324 335 339 340 342 343 343 343 343 342 342 341 342 342 342 342 342 341 340 339 339 338 338 339 339 337 334 331 332 335 336 336 336 336 336 336 336 336 335 334 334 333 333 333
306 306 310 308 304 305 307 306 307 307 303 304 304 304 308 309 307 308 309 310 312 314 318 320 319 319 318 318 317 317 318 318 317 319 320 318 314 312 314 315 315 317 325 334 340 341 342 343 343 343 342 342 342 341 342 342 342 342 341 341 341 340 340 340 339 339 338 338 335 332 332 335 337 336 337 336 336 337 336 336 335 335 334 333 333 332
306 306 308 309 306 306 307 307 308 309 305 304 305 304 305 306 305 307 308 310 312 315 319 319 319 320 319 318 316 316 317 317 317 319 319 317 315 314 316 316 316 319 325 333 338 341 342 342 343 343 342 342 342 342 342 342 342 342 341 341 341 341 340 340 339 339 339 338 336 334 333 334 336 337 337 337 337 337 336 336 335 335 335 334 333 332
307 307 306 308 308 306 307 307 306 306 305 305 305 305 304 305 306 306 308 311 312 314 317 315 316 318 315 316 319 317 316 317 317 317 318 317 316 317 319 318 319 322 328 334 337 339 341 342 342 342 342 343 342 342 342 341 341 342 341 341 341 341 340 339 339 339 339 338 337 334 332 333 335 337 337 337 337 337 336 336 336 335 335 334 333 332
308 308 306 306 306 306 306 306 305 305 306 305 304 303 303 306 306 305 309 316 314 313 317 315 314 316 316 317 318 315 314 315 315 316 317 318 318 320 321 320 320 323 329 334 336 339 340 341 342 342 342 343 342 342 342 341 341 341 341 342 341 341 340 339 339 338 339 338 336 332 331 333 335 336 337 338 337 336 336 335 335 335 334 334 333 332
309 309 307 307 307 307 306 306 306 306 306 307 307 304 303 305 306 305 311 316 313 312 317 317 314 314 316 317 314 313 314 314 313 315 317 319 319 320 320 321 321 323 331 336 337 339 340 340 342 342 342 343 342 342 342 341 341 341 341 342 341 340 340 339 339 339 338 337 334 332 332 334 336 336 337 337 336 336 335 335 335 334 334 333 332 331
309 309 308 308 308 308 309 308 307 307 307 309 310 306 303 305 305 306 309 311 312 312 314 315 314 312 315 315 312 313 314 314 313 314 317 319 320 319 320 322 321 324 333 337 338 340 340 341 343 342 343 343 342 342 342 341 341 341 341 341 340 340 340 339 339 339 338 337 335 335 335 336 336 336 336 336 335 335 335 335 334 333 334 333 332 331
309 309 308 308 308 309 310 311 311 311 308 308 309 306 304 305 305 309 313 312 311 313 312 312 312 311 312 313 312 313 315 314 313 313 316 319 319 318 320 322 323 326 334 338 339 340 341 342 343 342 343 343 342 342 341 341 341 341 341 341 340 340 339 339 339 339 338 337 337 336 337 337 337 336 336 336 335 335 335 334 333 333 333 333 331 330
309 310 308 308 309 308 308 309 310 311 308 307 308 307 305 305 305 309 314 314 313 313 312 312 312 313 313 312 313 313 314 314 313 314 317 318 318 319 319 322 324 329 335 339 339 341 341 342 342 343 342 342 342 342 341 341 341 341 341 340 339 339 339 339 340 339 338 337 337 337 337 337 337 336 337 336 336 335 334 333 333 332 332 331 330 329
310 310 309 309 309 308 308 307 307 308 309 308 307 307 306 306 307 307 309 314 317 315 312 313 315 315 313 312 312 313 313 313 313 315 317 317 318 319 318 321 326 331 337 339 340 341 342 342 342 342 342 342 341 341 341 341 341 341 341 340 339 338 338 339 339 339 338 337 337 337 338 338 337 337 337 336 336 335 333 333 332 331 331 330 329 328
310 310 310 310 309 309 309 308 307 308 309 309 308 308 307 307 308 309 309 313 317 315 314 315 315 314 312 311 312 313 313 314 314 316 317 318 318 318 319 322 327 334 339 339 340 341 341 342 342 342 342 341 341 341 341 340 341 341 340 340 339 339 338 339 339 339 338 338 338 338 337 337 338 338 337 336 335 335 333 333 332 331 330 329 328 328
310 310 311 310 310 309 309 308 307 308 309 310 310 309 307 307 308 311 312 313 315 315 316 316 315 313 311 311 312 311 312 314 315 316 317 317 317 318 321 324 330 336 339 339 341 341 341 342 342 341 342 341 341 341 341 340 340 340 340 339 339 339 339 339 339 339 339 338 338 338 337 337 338 339 337 336 335 335 334 333 332 330 329 328 328 328
310 311 311 310 309 310 310 309 308 308 309 312 312 309 306 307 309 309 310 312 313 314 315 315 315 312 311 311 312 312 313 315 316 316 316 316 318 319 322 327 334 337 339 340 341 341 341 341 341 341 341 340 341 340 340 340 340 339 339 339 339 339 339 339 339 339 339 338 338 339 338 338 338 338 337 335 335 335 335 334 332 330 329 328 329 329
310 311 311 311 310 311 312 312 312 311 310 311 313 311 307 308 310 309 310 311 311 312 313 314 314 311 310 312 315 316 316 317 317 316 315 316 319 320 321 327 335 339 339 340 341 341 341 341 341 341 341 340 340 340 340 340 339 339 339 338 339 339 339 339 339 339 339 338 338 338 338 338 338 338 337 336 335 334 335 335 332 330 329 329 329 328
310 311 313 314 313 313 312 313 314 314 313 314 316 313 309 309 311 311 312 313 312 312 313 313 311 310 311 316 321 321 319 318 318 317 316 317 319 320 320 322 330 338 340 340 341 341 341 341 340 340 340 340 340 340 340 340 339 338 337 337 338 339 338 339 339 339 339 338 338 338 338 338 338 337 336 336 336 335 335 334 331 328 328 329 329 328
311 312 314 315 316 315 313 312 312 314 316 319 318 313 310 310 310 311 312 313 313 313 312 312 311 311 316 322 325 323 319 318 318 318 318 319 318 319 320 319 323 333 339 340 341 340 340 340 340 339 339 339 339 340 340 339 338 337 337 337 338 338 338 338 338 339 339 338 338 339 338 339 338 336 335 336 336 335 335 333 330 328 328 329 328 328
314 314 315 315 316 316 315 314 314 317 320 320 317 315 313 310 309 310 311 312 312 312 312 313 312 314 319 322 321 319 318 318 318 318 318 318 318 318 319 318 320 328 336 340 340 340 340 340 339 339 339 339 339 339 339 338 337 337 337 338 338 338 338 338 338 339 339 339 339 338 338 338 336 336 336 335 335 334 333 332 330 328 328 328 328 327
315 315 315 315 316 316 317 317 317 317 319 320 321 320 319 317 314 312 312 313 313 313 314 314 313 316 321 321 317 316 318 317 317 318 318 318 318 318 319 321 322 327 334 338 340 340 340 340 339 339 338 338 339 338 338 337 337 337 338 338 338 339 339 338 338 339 339 339 339 338 338 337 336 337 337 336 335 333 332 331 330 328 328 327 327 327
315 314 315 315 316 316 318 319 319 318 317 319 322 322 321 322 321 317 317 319 319 318 320 320 319 321 323 320 316 316 317 317 317 319 319 318 318 320 323 326 325 328 333 337 340 340 339 339 339 338 338 339 338 338 337 337 337 337 338 338 338 339 339 338 339 339 339 339 338 338 337 336 336 337 336 335 335 333 331 331 330 328 327 327 327 326
314 315 315 316 316 317 317 318 320 320 318 317 319 319 318 320 321 320 322 326 324 321 323 325 327 330 329 324 320 318 319 322 323 321 319 318 318 320 325 329 329 330 333 336 339 340 339 339 339 338 338 338 338 338 337 337 337 338 338 338 338 338 338 338 339 338 338 338 338 338 337 337 337 337 336 335 335 333 331 330 329 327 327 327 326 326
315 316 317 317 317 317 317 317 317 317 317 318 318 318 318 319 320 320 323 326 325 321 321 323 326 328 328 326 324 322 323 327 328 325 321 319 318 319 324 330 333 333 334 336 338 339 338 339 338 338 338 338 337 338 337 337 338 338 338 338 338 337 338 338 337 337 337 337 337 338 337 337 337 337 336 335 334 333 331 330 328 327 327 327 326 326
316 317 316 317 318 317 317 317 317 317 316 317 318 318 318 318 319 321 323 325 323 320 320 322 323 323 323 323 325 324 324 326 327 324 321 320 319 320 325 331 334 335 336 337 338 338 338 338 338 338 337 337 337 337 337 337 337 337 337 337 336 337 336 336 336 337 336 337 338 338 337 337 336 335 335 334 333 332 331 329 328 327 327 327 326 326
316 315 315 316 317 317 316 317 318 317 315 316 317 318 317 318 320 323 325 323 320 319 320 322 322 322 322 323 325 325 324 325 325 324 324 322 319 320 326 331 332 333 335 337 338 338 338 338 338 338 337 337 337 337 337 337 337 337 336 336 336 336 335 335 336 337 336 337 338 336 336 336 335 333 333 333 332 330 328 327 327 327 327 327 326 326
315 315 316 316 316 317 316 316 318 317 314 315 317 317 317 320 323 324 322 320 320 320 321 321 321 322 322 322 324 325 324 325 326 327 328 325 320 321 328 331 329 330 333 336 338 338 338 338 338 337 337 337 337 337 337 337 337 337 336 335 335 335 335 336 336 337 337 338 337 336 335 336 335 333 332 332 331 328 327 327 327 327 327 327 326 326
314 315 317 316 316 317 316 317 319 318 315 315 317 318 319 321 322 321 320 320 320 321 320 320 321 322 322 323 324 324 324 326 329 329 329 327 323 325 330 332 331 331 331 332 336 337 338 338 338 338 338 338 337 336 336 336 336 336 336 335 335 334 335 336 337 337 338 337 337 336 336 335 334 333 331 331 330 328 327 326 326 327 327 327 326 326
314 315 316 316 316 317 318 319 320 319 316 315 316 318 319 319 319 319 319 319 320 320 321 321 321 322 323 323 324 324 326 329 331 331 330 329 328 329 331 332 333 334 334 334 336 337 337 337 338 337 338 337 337 336 336 336 336 336 336 336 335 334 334 335 336 337 337 336 337 336 335 333 333 332 331 330 330 329 327 326 326 326 326 326 326 326
316 316 316 316 316 317 318 318 318 316 314 314 316 318 317 317 318 319 320 320 320 321 321 321 321 323 324 325 325 327 328 329 331 332 332 331 331 331 331 331 332 334 335 337 338 337 336 336 336 336 337 337 336 336 336 336 336 336 336 336 335 334 334 335 336 336 336 336 337 336 334 333 332 331 331 331 330 329 328 327 326 325 325 326 326 325
316 315 316 317 317 318 318 317 317 316 316 316 317 317 316 317 318 319 320 320 320 320 321 322 322 323 325 327 327 327 326 328 331 333 332 333 332 332 332 332 331 332 333 335 336 336 336 335 335 335 336 336 335 335 335 335 335 335 335 334 334 333 333 333 334 335 336 336 335 333 333 333 332 332 332 331 330 329 328 327 326 325 325 325 325 325
318 315 317 319 318 319 321 320 318 317 317 317 318 318 317 318 319 319 319 320 320 321 322 324 324 324 326 328 328 327 327 328 331 331 332 333 333 333 334 333 333 332 332 332 334 335 335 335 334 335 335 335 335 334 333 334 335 335 334 333 333 333 332 332 332 334 335 334 331 330 332 333 333 332 332 331 329 328 327 326 326 325 326 326 325 326
316 315 318 320 319 320 322 320 317 317 317 317 318 318 318 318 319 318 319 320 321 321 323 324 325 324 325 327 328 328 329 329 329 328 330 333 333 334 334 334 334 333 332 332 333 334 335 335 335 335 335 335 335 334 333 332 333 334 334 333 333 333 332 332 332 334 335 333 331 331 332 332 332 332 331 330 329 328 327 326 326 326 327 326 326 326
314 316 319 320 320 321 321 319 317 317 318 318 318 318 318 318 319 318 319 320 320 321 323 324 325 325 325 325 326 325 326 326 325 326 329 331 331 332 332 332 333 333 333 333 333 333 334 335 335 335 335 335 335 334 334 333 333 333 334 334 333 332 332 332 333 334 334 333 332 332 332 332 332 331 330 329 329 328 327 327 327 327 327 326 326 326
314 319 321 319 319 320 320 318 317 319 320 319 318 318 319 319 318 318 318 319 320 321 323 325 326 325 325 325 325 324 325 325 325 326 327 328 329 330 330 331 331 332 333 332 332 332 333 334 334 334 334 334 334 333 333 333 332 332 333 333 333 332 332 332 333 334 333 332 332 332 332 332 331 330 329 329 328 328 327 326 326 326 326 326 326 326
314 318 318 317 317 318 317 316 316 317 318 319 319 319 319 318 318 318 318 319 320 321 323 326 326 326 326 326 325 325 325 325 325 326 327 327 327 328 329 330 331 331 332 332 332 332 332 332 333 333 333 332 332 332 332 332 332 331 332 333 333 332 332 332 333 333 332 332 332 332 332 332 331 330 329 328 328 328 327 327 326 325 325 325 325 325
Wind_Speed
2 1 2 5 5 4 4 5 7 5 3 4 5 4 4 4 4 5 6 9 3 2 6 9 13 13 10 9 7 15 17 11 16 19 22 27 30 32 34 37 38 39 45 46 43 42 43 43 44 45 44 43 42 41 39 39 38 36 32 30 30 30 30 29 30 31 31 33 32 30 30 30 29 27 25 24 22 19 17 16 17 18 17 16 16 16
3 2 6 7 5 5 6 7 7 5 4 6 5 5 5 4 6 6 7 11 6 2 6 8 10 10 8 8 7 11 12 9 12 15 20 26 29 33 36 39 42 43 43 40 37 38 39 42 44 45 45 44 44 42 41 41 39 36 32 30 30 30 31 31 31 32 33 34 34 33 32 31 29 27 26 25 23 20 18 19 19 18 17 16 17 17
3 5 9 7 5 5 6 6 6 7 6 5 4 4 5 3 5 7 7 10 7 2 5 8 8 8 6 7 8 8 8 11 18 21 24 28 29 31 34 38 42 41 38 35 36 37 39 42 44 45 45 45 44 42 42 42 40 37 34 32 31 31 32 33 32 32 33 34 34 32 31 29 27 26 26 25 22 20 20 21 20 18 17 17 17 17
4 6 6 6 6 5 6 7 6 6 5 5 4 4 5 3 3 5 5 7 7 4 6 7 7 6 5 6 7 10 12 15 22 25 29 32 32 34 37 39 42 42 38 37 38 39 40 42 45 46 46 45 44 43 43 44 42 39 36 34 33 33 33 34 34 33 33 33 32 30 28 27 25 25 25 24 22 22 23 22 21 20 19 19 18 16
7 8 5 3 4 5 6 7 6 5 4 5 6 6 6 5 5 6 6 6 7 8 6 4 7 5 4 6 6 9 13 14 18 21 25 29 33 37 39 39 43 46 44 43 42 42 42 44 46 47 48 47 46 46 45 45 44 41 37 34 33 33 34 35 35 35 34 33 31 29 28 26 26 26 26 26 26 26 26 24 22 21 21 20 19 16
8 10 8 5 6 6 6 6 6 5 4 5 6 8 9 8 8 8 7 5 4 8 5 3 4 6 3 6 7 6 7 8 12 13 16 24 28 32 34 35 39 44 47 49 49 48 47 47 48 49 49 49 48 47 46 46 44 42 38 35 34 34 35 36 37 37 37 35 33 33 31 30 31 31 31 30 29 28 27 25 23 23 23 21 19 17
5 6 5 4 6 6 5 6 6 6 4 5 5 8 10 10 9 10 8 5 3 6 5 4 4 5 4 4 7 6 5 7 8 9 12 19 24 28 33 37 39 40 42 46 49 52 52 50 50 50 50 50 49 47 47 47 45 42 39 35 35 35 37 39 40 39 39 37 35 34 33 33 34 34 33 31 29 27 26 25 24 24 24 22 20 18
3 3 2 1 3 4 4 5 6 7 5 5 6 8 9 9 10 11 9 6 4 6 6 1 3 4 4 5 7 3 3 6 7 9 11 14 21 29 35 40 43 43 41 42 45 48 51 53 53 52 52 51 49 48 49 49 47 44 40 36 35 36 38 41 42 41 40 39 36 34 33 33 34 34 32 30 28 27 25 25 25 24 24 22 21 19
2 3 4 3 3 3 4 5 6 6 4 6 8 8 8 9 10 10 7 6 5 4 6 4 4 4 4 6 6 3 3 7 7 10 12 12 20 30 36 40 44 45 43 42 43 45 48 51 54 54 53 51 50 50 51 50 48 45 40 37 37 37 39 42 43 42 41 40 37 35 34 34 34 33 31 29 29 27 26 25 25 24 23 22 22 21
3 5 6 3 3 4 4 7 7 5 4 7 7 5 6 8 8 8 6 5 5 4 6 7 5 4 5 5 5 3 4 7 8 9 10 13 19 25 31 36 39 41 42 42 43 44 47 50 53 55 53 51 52 51 51 50 48 44 41 40 39 38 40 43 44 44 42 40 38 36 36 35 34 33 32 31 29 28 27 26 25 24 24 23 22 22
5 7 7 4 5 6 6 7 6 5 7 6 5 5 5 5 5 5 4 4 3 3 7 10 7 6 6 4 4 4 5 7 7 8 9 11 15 18 25 32 35 37 39 41 42 43 45 48 51 54 53 52 51 50 50 50 48 45 43 42 41 39 40 43 44 44 43 40 38 37 36 36 35 34 34 32 31 29 28 27 26 25 24 23 22 22
4 5 5 5 10 9 6 6 6 7 7 4 3 3 3 4 2 3 2 3 4 5 6 9 7 8 7 5 4 6 8 8 7 7 9 9 11 13 22 31 36 38 38 40 42 43 44 46 47 49 48 49 49 48 49 49 48 46 44 43 42 40 41 42 43 43 42 40 39 39 37 36 36 36 35 33 31 30 29 28 27 26 25 23 23 22
4 5 3 4 10 11 5 5 5 6 4 4 3 1 1 3 1 3 3 3 4 5 6 6 6 6 7 6 7 10 9 9 8 9 11 12 12 14 18 28 36 39 39 40 42 44 45 47 48 47 47 48 48 48 48 48 49 48 45 44 43 42 42 42 42 41 41 41 41 40 38 37 37 37 36 33 31 30 29 29 28 27 26 24 23 22
3 5 3 2 6 9 9 6 4 3 3 4 4 2 3 2 1 3 3 2 3 4 6 6 6 3 5 5 10 13 12 12 13 16 19 19 20 22 20 23 33 40 42 43 44 45 48 50 51 51 52 52 50 49 48 48 49 49 46 46 45 42 41 41 40 39 40 41 41 41 39 38 37 37 36 33 32 30 30 29 28 27 26 25 23 21
2 5 3 4 3 5 8 7 6 5 3 3 4 4 3 3 3 3 3 3 3 3 4 4 4 4 4 5 9 11 12 15 18 20 22 24 26 30 27 19 27 38 43 44 46 48 51 52 53 54 55 55 53 50 49 49 50 50 47 47 46 43 41 40 39 38 39 40 41 40 39 39 38 36 35 33 31 30 30 29 28 27 26 24 21 20
4 6 5 5 5 3 4 4 5 6 5 4 2 3 2 3 4 2 2 4 3 1 3 3 2 4 4 5 7 8 9 11 13 14 16 19 23 27 26 18 21 34 41 44 47 49 51 53 55 57 57 56 53 51 50 50 52 51 49 48 48 44 41 38 37 37 39 40 41 41 40 39 37 35 34 32 31 30 30 29 28 26 25 22 20 19
3 5 4 3 5 6 7 6 4 5 3 0 1 3 4 4 4 1 3 2 2 1 3 2 2 4 4 6 7 5 7 7 7 8 9 15 22 22 23 22 19 28 38 41 45 49 51 53 55 57 57 56 54 52 52 53 53 52 50 50 48 45 42 38 36 37 38 39 41 42 41 39 37 35 33 32 31 30 29 29 28 26 24 22 20 19
3 5 5 2 6 7 8 6 3 6 5 2 1 4 3 0 2 2 1 2 1 2 4 1 3 3 4 5 5 2 6 7 7 7 7 12 18 17 21 29 25 23 33 39 44 49 53 54 55 56 57 56 55 55 56 56 55 52 50 50 49 47 44 40 37 37 37 39 42 43 42 39 37 35 32 30 30 30 29 29 28 26 23 21 21 20
3 4 6 4 7 7 4 3 4 7 8 6 3 3 0 1 1 0 2 0 1 3 3 3 3 4 5 4 3 2 6 8 7 6 7 8 11 14 20 30 31 22 30 39 44 48 51 53 55 56 57 56 55 55 56 56 55 53 51 50 49 47 45 41 38 37 37 39 41 43 42 39 37 35 32 30 30 30 29 29 28 26 22 20 20 20
3 2 5 3 3 2 2 1 3 4 5 5 4 2 1 2 2 1 2 3 2 2 2 3 2 2 5 4 4 5 6 6 5 5 6 6 9 16 21 27 33 28 30 39 44 48 50 52 55 57 57 56 54 54 55 55 55 53 52 51 50 48 45 41 38 37 38 39 41 42 41 38 36 34 32 31 30 30 30 28 27 25 22 20 20 20
2 2 4 4 2 1 1 2 5 4 3 3 4 3 2 2 1 0 1 2 2 2 2 1 2 5 6 3 6 6 4 3 4 5 6 8 13 20 24 28 33 30 33 40 44 48 50 53 56 57 58 57 55 53 53 53 54 53 52 52 51 49 46 41 39 38 39 40 41 42 41 39 37 35 33 31 31 31 30 29 27 24 22 21 20 20
3 2 3 4 3 2 5 4 4 4 3 2 4 4 5 4 2 0 3 3 1 3 3 2 3 6 5 1 5 3 2 3 5 6 7 10 17 23 27 31 32 31 36 42 45 49 51 54 56 57 56 54 51 50 50 51 52 52 52 52 51 49 46 42 40 39 39 40 41 42 40 38 36 35 33 32 31 31 31 29 27 24 22 21 20 20
4 1 3 5 4 5 8 7 5 5 4 3 3 3 3 4 4 3 3 3 1 2 1 1 2 4 1 2 4 3 4 5 7 7 7 13 20 25 30 36 34 32 39 43 47 50 53 56 58 57 54 51 49 49 49 50 51 52 52 52 51 49 46 42 40 40 40 40 41 41 38 37 36 35 34 32 32 32 31 29 27 24 21 20 20 21
3 2 2 5 5 5 8 8 7 6 4 3 4 4 4 4 5 5 5 3 1 3 2 1 3 5 1 1 3 5 8 10 11 13 12 16 26 30 34 40 34 31 40 44 49 52 54 56 55 53 51 49 49 49 49 50 51 52 51 50 50 48 46 43 41 40 40 41 40 38 37 36 35 35 34 33 33 32 30 29 26 23 20 19 20 22
4 2 2 3 3 4 3 2 3 2 4 3 3 4 5 6 6 4 3 3 2 4 4 3 6 5 2 7 9 9 11 13 13 16 16 18 26 32 36 41 33 30 41 44 48 51 51 51 48 48 49 50 50 49 49 50 50 51 50 49 48 47 45 43 42 41 41 41 39 37 36 36 35 35 33 33 33 31 29 27 25 23 21 20 21 23
5 2 3 3 3 4 2 1 2 2 3 2 3 6 7 7 8 4 2 3 4 5 6 5 7 5 6 10 10 9 11 13 15 17 20 20 26 32 36 40 32 31 41 42 45 47 47 46 46 48 50 50 51 50 49 50 50 50 50 49 47 46 44 44 43 43 42 40 38 37 36 37 36 34 33 33 32 31 29 27 25 24 22 21 22 23
2 2 6 7 6 6 5 5 4 2 2 3 5 9 8 8 9 6 3 4 4 4 5 5 5 8 11 10 9 10 11 13 14 15 18 21 26 30 33 39 31 32 40 40 43 45 44 46 47 50 51 51 51 51 50 51 51 51 50 48 46 45 44 45 45 45 43 40 38 37 37 37 36 34 33 32 32 30 28 27 26 25 22 20 23 23
0 3 7 9 12 12 9 9 7 1 1 4 6 8 8 7 9 8 6 6 4 3 6 5 3 8 12 10 9 11 13 13 13 12 15 21 27 29 31 37 31 30 38 38 43 45 44 47 48 49 51 50 50 50 50 51 51 52 51 48 46 45 45 46 45 45 43 40 39 38 38 37 35 33 32 32 31 30 28 27 27 24 20 20 23 24
0 3 5 7 12 14 10 10 10 5 4 5 6 8 8 8 9 8 7 7 5 4 6 7 7 11 13 11 12 13 12 13 15 18 20 23 27 27 30 35 28 28 36 38 42 45 45 48 49 49 49 49 49 49 49 50 50 49 48 46 45 45 46 46 45 45 43 40 40 39 37 36 35 34 32 31 32 30 27 27 27 23 20 21 23 24
0 3 4 6 8 10 9 10 9 7 6 6 7 8 9 9 9 7 6 7 7 7 8 8 11 14 12 11 13 17 16 16 19 22 22 22 23 24 28 31 24 27 35 39 42 45 47 49 50 50 50 49 49 49 50 50 49 48 46 45 44 44 45 46 45 44 43 42 41 39 37 36 36 35 32 31 31 29 26 27 27 24 20 22 24 24
3 2 3 4 3 5 7 8 8 9 7 7 8 7 8 9 9 9 8 6 6 7 7 7 10 12 11 11 14 17 18 16 16 18 19 21 21 20 26 27 20 28 34 39 44 45 47 49 48 49 50 50 50 51 51 51 49 48 47 45 45 45 45 45 45 44 43 42 40 39 37 36 37 37 35 32 30 28 27 29 28 24 21 23 25 26
4 2 1 3 0 2 4 4 7 8 6 6 9 8 9 10 8 8 7 7 7 8 7 6 7 9 11 11 9 10 12 12 12 15 18 21 21 19 23 23 16 30 35 37 42 44 45 47 47 48 50 51 52 52 52 52 49 48 47 45 46 45 45 45 45 44 43 42 40 39 38 37 38 37 35 32 30 29 30 31 28 23 22 26 28 28
4 3 2 1 1 2 3 5 5 3 5 4 8 9 12 10 8 7 6 8 10 8 6 6 8 10 10 8 6 8 9 9 13 17 18 18 22 24 23 22 15 25 35 37 40 43 45 47 49 51 52 52 53 53 54 53 51 49 48 47 46 45 45 45 44 43 43 42 42 41 40 39 37 34 34 33 30 30 32 31 27 23 24 28 29 28
4 3 2 1 2 1 3 4 1 4 4 5 5 9 14 13 12 11 9 10 11 9 7 8 8 10 9 6 6 8 10 14 20 24 23 22 24 27 26 25 20 18 30 38 40 42 46 49 50 51 53 53 54 54 54 52 51 49 48 46 46 46 46 45 44 43 43 43 43 42 39 38 36 34 35 34 32 32 32 29 26 24 25 29 30 29
4 4 2 0 1 2 1 2 3 2 4 6 3 1 9 13 14 13 12 12 13 12 11 10 11 12 10 7 8 11 16 23 29 32 32 28 26 27 27 27 22 17 24 34 40 43 45 48 49 49 50 51 51 51 49 48 47 45 44 44 45 45 46 45 44 43 44 44 43 41 39 38 35 36 39 37 33 31 30 28 26 25 27 31 31 29
3 2 1 1 1 2 3 3 2 4 5 4 5 5 0 4 6 7 9 11 10 9 9 10 12 13 10 8 13 18 21 25 30 37 38 26 19 21 23 24 21 19 26 33 40 45 46 48 50 50 50 49 48 48 47 46 45 44 43 44 45 45 45 45 44 44 45 45 43 41 40 38 35 40 43 39 33 29 28 29 28 26 28 32 30 28
3 1 1 2 1 0 2 2 3 2 4 5 4 4 3 2 2 3 5 7 6 3 4 6 8 9 8 9 15 17 18 19 19 28 33 24 17 18 18 20 21 22 29 35 40 45 47 49 50 49 50 50 50 49 48 46 45 44 44 44 44 45 45 45 45 45 45 44 43 41 39 37 37 41 42 37 31 28 28 29 28 27 30 32 30 29
1 1 0 1 1 1 1 3 3 3 2 3 6 6 4 4 7 5 3 4 4 1 2 2 5 7 6 8 12 12 13 12 8 15 31 35 27 22 19 19 20 21 27 33 38 40 42 43 44 45 47 48 49 49 47 46 45 44 44 44 45 45 45 45 45 45 44 43 42 40 39 38 37 40 41 37 31 28 28 28 27 28 32 33 30 29
3 1 1 1 1 1 1 1 2 1 1 5 8 9 9 9 8 4 1 4 4 3 6 5 5 8 6 8 10 7 6 7 5 13 33 41 30 21 19 18 15 17 22 30 35 37 38 40 41 42 43 43 44 45 45 46 45 44 44 45 45 45 45 44 45 45 43 43 42 40 38 37 36 39 40 36 29 27 27 27 27 29 33 33 29 28
4 3 2 2 2 1 2 1 3 2 1 4 7 12 16 12 3 3 1 5 4 7 12 9 7 10 10 11 11 4 1 5 10 20 36 39 30 21 16 13 13 16 22 29 34 34 35 39 40 41 42 42 43 44 44 44 45 44 45 45 45 45 44 43 44 44 42 43 42 39 35 36 38 40 38 31 26 24 25 25 27 30 34 33 30 28
2 2 1 1 2 2 1 1 3 2 3 4 9 16 17 9 3 4 3 4 5 12 17 14 12 15 15 15 12 6 9 18 25 32 37 36 33 26 16 12 13 15 22 30 35 37 37 39 41 42 44 45 45 44 44 44 45 44 45 44 44 44 43 42 43 44 43 42 39 34 32 35 38 37 32 26 24 23 21 22 26 31 34 32 30 29
2 3 1 1 2 2 0 1 3 3 3 2 14 20 12 2 1 2 5 10 13 15 18 19 19 19 20 19 16 16 21 26 26 24 22 23 26 23 16 16 17 20 26 30 35 39 40 40 40 41 42 43 44 45 45 45 45 44 44 44 44 43 41 41 43 43 41 38 35 34 32 32 31 30 28 25 22 20 19 21 26 31 33 32 31 30
1 3 3 2 2 2 1 2 4 2 2 7 15 14 5 2 4 9 12 16 18 16 16 19 22 22 22 21 19 21 24 19 11 8 8 10 15 17 19 22 24 28 32 33 33 36 37 39 42 42 42 42 43 45 46 45 44 44 43 43 41 40 40 41 41 41 39 38 38 36 31 29 30 32 30 26 21 20 19 20 24 30 34 33 32 32
1 1 2 1 2 2 2 2 1 3 8 13 11 5 5 9 15 17 14 14 16 15 12 15 20 22 23 22 21 20 16 8 6 6 3 4 7 12 16 19 23 27 31 33 33 31 30 32 35 38 40 42 42 44 44 44 43 43 42 41 39 38 38 39 39 40 40 39 39 36 30 29 31 31 29 25 22 21 21 20 23 30 34 34 34 34
1 2 2 1 2 1 2 5 7 9 16 20 14 9 13 18 20 19 15 14 16 16 12 14 20 22 19 16 13 9 8 9 9 6 4 3 3 6 9 12 16 19 23 27 30 30 28 27 27 29 32 35 38 41 42 42 43 42 40 39 38 36 36 36 37 37 37 38 38 36 31 30 30 28 26 24 21 21 23 24 25 29 33 35 35 35
4 3 2 2 2 3 5 10 10 10 16 21 15 10 14 19 19 20 19 17 17 16 14 15 18 19 15 8 4 6 10 10 9 8 6 5 5 6 8 10 12 14 18 21 24 27 29 28 26 27 29 30 31 34 36 37 38 39 39 38 36 34 34 34 35 35 35 34 32 28 26 26 26 26 26 24 21 21 23 24 25 28 32 34 34 34
2 1 2 2 2 3 3 5 5 6 14 19 15 11 15 19 21 21 21 19 17 14 12 12 13 15 12 4 2 3 5 5 6 9 6 4 5 6 7 8 10 12 16 20 22 25 28 28 29 31 34 33 32 33 33 33 34 35 36 36 35 34 33 33 33 35 34 31 26 24 23 25 26 28 28 25 23 23 23 23 24 26 28 30 32 33
3 2 1 2 2 2 5 7 7 9 12 11 10 12 15 19 23 24 22 18 16 12 11 11 12 13 10 5 5 6 3 3 7 8 6 5 5 6 7 8 9 10 12 16 20 24 27 29 31 33 36 38 39 39 38 37 36 36 36 36 34 33 33 32 34 37 37 33 29 26 25 25 27 29 28 26 24 24 23 23 24 25 26 27 28 29
6 4 2 1 2 4 5 7 9 7 4 5 10 13 14 17 22 25 24 22 19 16 13 10 9 9 9 9 12 12 8 5 5 4 3 5 5 6 7 7 7 8 10 14 18 22 25 28 30 33 35 37 38 38 38 39 39 37 37 35 33 30 31 32 35 36 35 33 31 28 26 27 29 28 27 25 22 21 22 22 24 25 26 26 25 24
5 4 3 2 4 4 4 7 9 6 4 8 12 14 15 18 20 23 25 25 22 19 18 14 11 9 9 9 10 9 6 5 6 5 2 1 3 4 4 5 6 6 8 12 16 20 24 27 29 31 33 34 34 35 36 36 37 35 34 33 31 29 30 33 36 38 37 36 34 29 25 26 28 27 26 24 22 21 22 23 25 26 25 25 24 23
5 6 6 5 5 8 10 11 13 8 8 11 14 15 15 18 20 23 25 24 20 17 18 18 15 13 11 9 8 6 7 9 9 6 4 2 3 3 3 2 3 4 7 10 14 17 22 25 27 29 32 33 34 34 33 33 34 33 33 32 30 28 30 34 38 39 38 36 33 27 22 23 27 28 26 24 22 22 22 23 25 25 24 24 24 22
Wind_Direction
20 7 259 229 235 234 241 244 241 271 329 290 285 278 257 269 274 267 279 283 289 261 239 230 247 255 251 253 249 261 263 224 210 213 201 197 198 199 198 202 207 208 212 213 210 208 208 207 207 207 209 209 208 207 205 202 200 197 195 196 196 194 193 191 189 191 193 191 190 194 198 201 205 204 203 205 208 207 207 210 212 217 223 227 231 230
350 285 252 242 241 241 243 247 249 260 267 265 270 277 272 257 265 270 274 283 288 270 262 257 263 266 255 253 249 247 254 239 216 213 208 200 197 200 199 201 205 209 212 211 208 209 208 206 206 207 209 209 208 206 205 204 201 199 200 202 200 195 195 196 196 195 196 195 194 196 199 201 204 205 204 207 208 205 208 214 216 220 225 231 233 231
302 256 256 252 239 242 256 256 257 258 250 257 262 265 271 258 271 274 264 274 282 254 265 272 270 273 260 245 248 237 232 243 234 222 216 205 196 200 201 199 202 206 207 206 207 209 208 207 206 207 209 210 209 207 205 204 203 200 202 205 203 199 198 199 201 201 199 198 197 200 202 202 204 206 206 209 211 208 212 217 219 222 226 231 233 231
255 250 249 248 235 234 258 254 246 260 258 246 243 250 262 249 253 270 270 280 287 261 253 277 281 275 265 256 258 243 233 243 244 232 223 212 200 201 204 201 200 202 202 203 205 207 208 207 205 206 208 209 209 207 206 205 204 203 203 204 205 202 201 201 203 204 203 199 199 202 206 205 207 208 207 209 213 215 217 219 222 225 227 229 230 229
249 261 263 270 250 219 245 262 243 238 256 243 231 231 243 243 227 239 269 297 305 286 252 262 294 288 246 243 258 254 242 242 245 237 226 218 207 205 207 204 202 202 201 201 203 205 205 205 205 206 208 208 208 208 208 207 205 204 204 205 206 205 203 204 204 205 204 201 199 202 205 207 209 210 209 210 212 215 218 220 223 226 227 228 228 228
255 261 257 261 265 236 230 255 241 213 239 255 234 224 228 234 236 242 261 278 300 289 258 170 264 286 268 239 240 248 252 249 247 239 229 222 211 205 206 206 206 205 203 202 203 203 204 204 205 205 206 207 208 210 211 209 207 205 205 205 208 207 205 205 206 205 205 203 201 201 202 204 207 208 210 212 212 213 216 220 223 226 228 229 228 228
249 250 231 225 250 252 237 247 241 204 215 259 233 217 222 226 236 243 246 234 218 260 258 144 193 269 315 282 248 234 252 265 260 253 238 225 211 203 203 205 208 207 205 204 203 202 202 204 203 202 204 208 210 213 212 209 208 206 205 206 208 208 206 206 206 206 205 205 204 205 206 207 207 208 210 213 214 215 217 221 224 225 227 230 230 229
219 249 272 248 246 255 249 248 236 194 192 250 238 219 218 217 229 235 232 230 220 246 269 189 176 259 297 274 262 246 267 281 276 267 254 227 210 205 205 205 207 208 206 204 202 201 201 202 202 202 205 210 212 212 211 209 208 207 205 206 208 208 207 206 206 206 206 206 206 207 210 210 210 211 213 214 215 216 220 222 223 224 227 230 230 230
199 240 271 272 264 258 241 246 240 199 189 244 244 234 224 217 225 231 226 234 232 237 273 259 193 243 267 255 269 285 271 278 272 259 259 241 214 205 206 207 207 207 207 205 204 202 201 202 202 204 206 209 211 212 211 210 208 206 203 205 209 208 207 206 206 207 207 207 208 208 210 210 211 215 216 216 217 218 221 223 224 225 227 229 230 230
223 229 246 236 240 244 242 255 245 204 219 256 263 264 244 227 225 230 218 224 232 211 248 250 194 210 262 249 260 277 243 250 257 254 254 251 234 213 206 209 208 207 205 205 205 204 203 203 203 206 207 207 210 211 211 210 207 203 203 206 209 208 207 206 207 208 207 208 209 209 210 211 212 215 217 217 219 220 221 222 224 225 226 228 229 230
244 247 259 238 227 240 251 263 258 239 245 263 288 288 275 252 217 226 211 188 228 226 238 244 201 193 254 245 224 232 219 216 232 255 260 259 251 223 208 209 208 206 204 202 205 205 205 206 205 206 206 206 207 208 208 207 205 203 203 206 209 208 207 207 207 207 207 207 208 210 211 213 215 216 216 217 218 220 221 221 223 224 225 227 229 230
261 249 254 228 223 230 254 269 270 271 256 235 270 278 302 305 215 208 216 161 210 237 237 239 201 192 236 250 226 225 228 223 216 242 262 268 265 236 214 213 211 208 204 201 202 204 204 205 205 205 204 205 205 206 207 206 204 203 204 207 208 207 208 207 206 207 208 208 209 211 213 215 218 219 219 218 219 220 221 222 223 224 225 227 228 229
263 240 246 231 224 217 226 268 274 281 258 202 234 253 255 292 242 197 218 176 208 242 240 223 186 195 232 238 238 237 236 236 225 234 252 260 267 257 228 219 218 212 207 203 201 202 202 202 203 204 204 205 206 206 207 205 203 204 204 207 207 207 207 206 206 207 209 211 211 212 214 217 220 222 223 222 222 223 224 225 226 227 227 228 229 230
291 284 277 221 230 209 202 224 242 253 229 185 198 192 192 221 186 218 234 203 219 258 255 216 179 218 258 234 232 238 237 236 235 236 244 252 261 268 257 231 223 217 209 206 203 201 202 202 201 203 205 206 207 207 206 204 203 204 205 207 207 207 207 205 205 207 210 212 212 213 215 218 221 223 224 225 225 226 227 229 231 233 232 232 233 233
251 292 247 186 216 195 195 210 211 219 232 221 198 158 171 182 163 204 211 189 212 253 264 223 177 206 231 222 219 226 232 236 240 241 245 255 261 268 269 245 222 219 211 205 205 203 203 202 202 203 205 207 207 207 205 203 203 205 206 207 207 207 206 205 205 207 211 213 213 214 216 219 221 223 225 226 227 228 230 233 235 236 236 236 237 235
220 259 240 220 236 229 249 248 211 217 240 249 207 133 170 193 165 190 206 183 176 218 257 218 197 217 218 246 239 223 234 237 239 245 247 256 263 267 270 256 222 218 214 206 204 203 203 203 203 203 205 206 206 206 204 203 203 205 207 208 208 208 207 205 204 207 212 214 214 215 217 219 221 223 225 225 226 228 231 235 238 239 238 238 238 235
207 258 270 280 275 247 240 236 205 214 221 195 164 195 220 193 156 178 263 254 114 174 262 210 229 287 280 276 267 220 231 249 244 248 248 258 268 272 276 274 243 217 215 209 203 202 203 203 203 203 204 205 205 204 204 204 205 205 207 207 207 209 209 206 205 208 211 215 216 217 218 220 221 222 223 224 226 228 231 234 238 239 238 238 236 233
199 266 273 255 278 255 216 211 242 236 211 136 171 229 248 198 119 123 210 334 53 191 272 230 185 246 248 266 299 171 206 248 255 253 262 269 276 281 279 280 270 228 212 209 204 202 203 203 203 203 205 206 206 206 206 206 206 205 206 207 207 208 209 207 206 208 212 215 217 217 217 219 221 222 223 224 226 229 231 232 234 236 236 235 233 231
172 266 279 227 245 262 225 209 272 261 223 195 206 228 132 102 288 28 117 34 170 189 284 293 201 213 213 229 297 233 216 243 257 267 285 284 284 287 281 282 282 252 210 203 203 202 202 202 202 203 205 206 207 207 206 206 204 204 205 207 208 210 209 207 205 207 211 215 216 217 217 218 220 222 223 225 227 230 233 233 234 234 233 230 230 229
148 215 288 271 234 289 359 176 219 265 236 204 219 234 144 169 215 253 158 161 166 181 255 292 301 252 232 210 210 231 244 257 271 293 295 280 279 285 286 290 289 265 218 202 200 201 201 201 202 204 205 206 206 206 204 202 202 202 204 206 208 211 210 207 206 208 211 214 216 217 217 218 220 221 223 225 228 231 233 234 235 234 231 228 227 226
149 196 253 291 322 13 323 210 187 206 203 180 193 190 178 203 216 310 230 186 155 162 187 256 308 264 249 200 171 206 255 269 270 284 281 277 289 294 293 292 285 260 223 206 200 199 200 201 202 204 205 206 206 204 201 200 200 201 203 205 208 211 210 208 207 210 212 214 216 217 216 217 219 221 223 226 229 232 233 233 233 231 230 228 226 225
186 212 234 276 314 248 243 228 174 179 190 181 194 191 182 190 177 92 279 278 175 168 177 167 266 265 263 134 125 140 316 299 274 279 285 296 303 305 302 295 281 251 220 207 201 199 199 200 202 203 204 204 203 201 199 199 199 199 201 205 208 210 210 208 209 210 212 214 216 216 217 217 219 221 223 226 229 231 232 232 229 227 229 229 229 227
149 144 245 259 263 245 253 254 227 227 251 256 237 226 176 162 159 160 217 272 294 254 262 91 263 272 278 105 99 52 330 304 300 306 312 315 316 314 311 305 287 246 217 206 201 199 199 201 201 201 201 201 200 199 199 199 198 199 202 205 208 210 209 209 210 210 212 214 215 215 216 218 220 221 222 225 228 230 231 230 228 227 228 231 231 225
135 116 227 259 275 265 262 261 249 237 227 235 240 218 179 170 181 183 192 209 275 277 287 29 262 250 263 341 357 353 329 319 325 336 337 327 323 318 314 314 297 244 214 205 201 199 200 200 199 198 197 198 198 198 198 199 199 199 201 204 207 209 209 208 209 210 212 213 213 214 216 218 220 220 222 225 226 228 229 228 227 227 229 233 231 220
175 165 193 246 288 293 292 295 286 238 182 205 223 193 192 192 184 184 201 197 242 243 200 198 248 240 300 324 327 337 332 324 321 328 334 329 322 315 314 319 302 240 211 204 200 198 198 196 194 194 194 196 196 197 198 199 198 198 200 203 206 207 207 207 208 210 212 212 212 214 216 219 220 220 222 224 224 226 227 225 226 228 231 232 224 211
183 175 173 210 231 249 253 214 237 209 177 204 195 183 195 198 184 170 167 190 226 233 204 218 257 280 315 311 313 322 323 318 312 318 329 327 317 310 314 321 301 235 208 202 198 196 194 192 192 193 194 195 195 196 197 197 197 198 200 203 205 206 205 206 208 210 212 211 211 213 217 219 220 221 223 224 224 225 224 223 225 230 233 227 214 206
179 205 201 221 230 234 228 225 230 158 143 217 201 188 192 193 187 177 168 195 209 229 240 242 259 295 302 298 309 317 311 308 306 315 325 318 309 306 314 321 299 235 208 201 196 193 192 190 191 193 194 195 195 196 197 197 196 198 200 202 204 206 205 205 207 210 211 211 211 213 217 220 221 223 222 223 225 225 222 222 226 232 234 223 209 204
7 237 218 223 235 245 242 241 254 256 186 234 202 192 196 190 187 188 201 217 200 214 260 261 264 288 290 294 307 306 303 306 305 311 313 303 298 301 312 319 297 234 207 198 193 191 190 189 190 192 193 194 194 196 196 196 197 198 199 201 203 205 206 205 206 209 210 210 211 213 216 220 223 223 222 224 226 224 221 222 227 233 233 219 207 204
77 240 224 215 236 251 247 245 256 259 252 243 208 197 200 196 195 197 211 220 206 213 249 268 282 281 284 297 302 294 294 301 298 298 298 291 292 302 313 315 290 228 202 195 192 190 188 189 190 191 192 193 194 194 194 195 197 198 199 201 202 203 204 204 205 207 209 210 211 213 216 219 222 221 221 224 224 221 223 225 228 233 229 215 206 205
219 241 218 216 245 256 246 244 251 250 250 249 233 209 196 197 203 207 221 222 214 226 245 269 284 284 285 291 288 285 287 288 284 287 290 286 291 307 317 309 276 218 198 194 192 190 189 190 191 191 191 192 193 193 193 195 196 197 198 200 201 203 204 205 205 206 208 209 211 214 216 217 219 219 220 224 224 225 228 225 228 234 225 211 207 207
224 241 182 192 252 269 248 238 235 236 238 250 259 233 193 189 198 212 230 230 227 245 258 277 289 289 284 276 274 281 286 284 281 286 291 290 295 312 319 307 260 208 197 195 192 190 190 190 190 190 190 192 193 193 194 195 196 197 198 199 200 202 203 204 205 206 208 209 210 212 213 216 219 219 218 221 224 229 229 222 227 234 222 209 209 209
206 249 198 168 205 288 265 247 232 223 211 242 269 246 198 187 193 208 217 210 217 240 258 278 284 273 269 273 277 283 284 280 283 290 291 292 299 310 319 312 254 205 198 196 193 191 190 190 189 190 192 193 193 193 194 195 196 196 198 199 200 202 203 204 205 206 208 209 209 211 213 215 217 218 218 217 221 227 224 219 227 233 218 209 209 208
193 250 275 228 277 267 248 256 248 176 145 231 253 215 192 193 200 206 209 211 214 215 225 244 246 247 263 288 302 292 288 287 288 289 287 290 299 300 305 312 278 216 202 197 195 193 190 190 191 192 194 194 194 195 196 196 197 198 200 200 200 201 202 203 205 207 208 210 210 210 212 214 214 217 220 219 220 223 218 217 229 231 216 208 208 209
209 238 265 281 304 258 217 231 238 99 135 239 241 188 184 190 195 202 211 217 213 210 223 237 245 259 271 280 278 279 288 290 287 287 285 284 290 290 290 299 296 243 211 202 198 196 192 191 193 194 195 195 195 196 197 197 199 201 200 199 199 201 202 204 206 207 208 209 209 209 211 212 214 218 220 219 219 217 215 220 233 231 215 208 207 209
224 235 239 205 266 267 273 82 86 125 223 252 304 173 190 194 195 204 215 219 215 216 230 243 255 264 258 251 266 272 279 289 293 294 291 282 279 281 280 283 286 259 224 208 200 199 196 193 194 194 195 196 195 194 195 196 198 198 197 198 199 200 203 204 205 207 208 209 209 209 211 212 215 219 217 214 213 215 218 227 234 229 214 207 207 209
240 241 219 226 248 281 358 49 148 234 266 296 4 28 63 192 188 202 227 239 231 218 225 239 251 257 249 253 272 274 284 300 305 301 297 291 285 287 281 276 273 249 225 213 205 202 199 196 195 195 194 193 193 193 195 196 196 196 196 198 199 200 202 203 204 207 209 208 208 209 211 212 216 219 215 208 206 213 222 227 231 227 214 206 207 211
238 217 215 287 297 7 332 288 243 288 338 346 359 7 2 338 232 205 223 249 246 201 214 243 251 253 247 257 273 286 308 320 311 302 305 313 318 310 293 276 267 242 222 217 210 205 203 200 197 194 192 192 193 195 196 196 197 197 196 197 199 199 200 201 203 205 206 207 209 210 211 213 216 217 212 205 206 216 222 225 230 227 213 206 207 210
176 168 226 300 337 41 321 307 336 15 12 295 290 305 321 291 262 230 193 254 273 27 20 313 268 264 267 282 296 320 339 328 296 296 308 314 317 314 300 278 259 235 223 220 214 209 206 201 197 194 192 192 193 195 196 196 197 196 195 196 198 199 200 200 203 206 208 210 212 212 212 213 214 215 211 205 210 220 222 226 234 226 211 207 209 211
44 52 53 47 345 344 40 356 328 25 209 262 284 310 322 296 260 212 129 281 281 357 0 342 304 297 298 297 307 342 357 318 289 284 297 305 312 310 297 279 247 218 215 217 213 208 205 200 196 194 193 192 192 192 193 195 196 195 195 196 198 199 201 203 206 209 211 212 212 211 211 212 215 218 212 205 209 219 223 230 237 225 210 208 211 216
26 10 31 45 337 329 52 328 258 224 252 282 303 321 322 312 298 103 61 272 276 334 339 333 308 301 302 302 311 342 169 255 265 273 284 295 307 307 290 266 234 208 206 211 211 208 205 201 197 193 193 194 192 192 193 194 195 195 196 198 200 201 203 206 208 210 211 211 210 209 212 216 217 215 209 205 211 220 226 235 234 219 209 208 212 218
1 344 2 52 353 341 15 290 275 278 262 279 325 327 320 322 30 114 204 262 308 325 326 321 306 304 311 311 305 285 255 263 268 273 278 283 291 295 285 261 248 227 214 212 209 208 206 203 200 197 196 195 193 192 193 194 195 196 198 199 201 203 205 207 208 208 209 209 208 209 215 218 215 210 206 208 218 224 230 236 228 215 210 210 213 219
350 334 329 47 358 345 32 256 306 289 231 325 343 334 326 352 90 238 289 322 325 317 317 317 312 310 311 305 293 281 279 279 277 279 280 275 277 277 261 241 236 231 228 220 211 209 209 205 202 199 197 195 193 193 194 195 195 196 198 200 201 202 205 206 206 205 205 206 208 210 210 211 215 217 213 212 220 226 228 230 223 216 214 214 216 220
336 321 331 4 336 335 32 356 328 289 266 352 352 342 347 74 303 301 319 326 317 305 305 310 310 307 299 290 282 278 278 281 294 312 299 264 250 239 223 212 210 216 221 217 208 206 206 205 203 201 197 195 194 193 194 194 194 195 198 199 200 202 204 205 205 205 206 208 208 205 204 211 220 220 211 208 220 229 227 225 221 217 215 216 218 221
257 302 334 2 334 348 9 341 287 240 284 318 331 303 288 318 314 309 311 309 303 298 289 290 296 296 286 271 260 262 272 295 1 2 318 238 219 217 213 208 205 207 209 207 204 201 200 202 202 199 196 194 192 192 193 192 193 194 196 198 201 204 205 206 207 207 207 207 204 201 207 218 217 208 203 210 225 230 225 222 219 216 216 217 220 221
255 242 233 238 260 237 212 246 259 264 282 298 303 283 297 319 325 323 315 304 308 316 312 301 296 291 284 273 263 279 325 353 354 330 302 295 275 249 240 235 227 219 214 212 210 206 204 203 197 193 192 191 190 190 191 192 194 194 194 198 203 206 206 206 206 206 206 206 204 203 208 209 202 200 208 219 227 225 220 218 217 215 216 217 219 222
259 237 205 216 257 263 242 245 257 273 286 299 309 310 316 327 333 334 330 322 325 331 329 319 306 291 288 299 317 342 357 354 329 303 292 291 284 269 261 257 248 237 230 226 218 209 206 204 197 194 193 190 186 185 184 187 192 194 196 200 205 208 208 207 206 207 209 209 207 206 207 203 200 207 215 220 222 219 218 219 217 214 215 217 220 222
279 214 205 243 276 332 301 251 245 277 288 301 321 336 335 336 338 340 339 340 345 344 333 326 311 292 292 330 35 344 0 351 291 275 267 257 255 258 257 256 250 239 233 231 224 213 207 203 198 197 196 195 194 193 192 193 195 198 202 204 206 207 207 207 208 208 207 207 206 205 206 207 210 214 216 216 216 215 216 220 217 212 212 215 218 221
328 9 316 271 249 272 275 280 301 299 282 297 339 345 334 336 340 342 348 1 13 6 340 326 315 303 305 319 293 279 274 249 256 257 243 223 225 233 238 243 244 235 224 221 217 211 206 203 199 197 198 200 200 200 201 200 197 199 204 205 205 206 207 209 210 206 202 204 205 204 205 210 215 216 214 212 213 214 217 218 212 208 208 210 213 218
294 307 294 284 303 292 280 301 326 328 280 301 340 340 331 334 340 343 351 6 18 16 359 344 337 332 324 304 288 281 267 256 272 276 240 219 213 215 220 223 226 225 213 207 206 203 201 201 199 196 195 196 197 197 199 199 197 198 202 204 205 206 207 209 209 204 202 206 207 205 208 214 216 215 212 209 210 215 218 215 208 206 208 211 216 221
298 299 306 348 335 308 299 327 345 346 276 289 321 334 336 339 341 343 350 359 9 14 11 9 9 358 333 305 292 289 291 320 348 353 327 232 189 193 200 202 209 212 203 198 199 199 196 195 194 193 192 194 197 196 196 197 197 198 202 205 206 206 208 210 208 205 205 207 205 202 208 215 215 212 211 209 207 208 213 214 213 213 214 216 220 225
315 298 304 323 313 286 290 324 346 332 275 289 321 334 340 347 346 341 347 0 12 17 18 19 13 359 350 352 356 347 345 359 10 15 24 70 133 170 178 179 198 202 195 198 204 206 201 197 196 195 193 193 196 194 192 195 199 202 205 207 206 206 209 209 207 206 207 207 204 201 208 218 216 212 210 210 207 207 210 212 212 213 214 217 222 227